Time,TemperatureF,DewpointF,PressureIn,WindDirection,WindDirectionDegrees,WindSpeedMPH,WindSpeedGustMPH,Humidity,HourlyPrecipIn,Conditions,Clouds,dailyrainin,SolarRadiationWatts/m^2,SoftwareType,DateUTC
2013-10-04 00:32:00,77.4,72.5,29.99,SE,145,0.0,0.0,85,0.00,,CLR,0.00,0.00,VWS V14.00,2013-10-04 04:32:00,
2013-10-04 00:36:00,77.4,72.5,29.99,SE,145,0.0,0.0,85,0.00,,CLR,0.00,0.00,VWS V14.00,2013-10-04 04:36:00,
2013-10-04 00:42:00,77.3,72.4,29.98,SE,145,0.0,0.0,85,0.00,,CLR,0.00,0.00,VWS V14.00,2013-10-04 04:42:00,
2013-10-04 00:43:00,77.3,72.4,29.98,SE,145,0.0,0.0,85,0.00,,CLR,0.00,0.00,VWS V14.00,2013-10-04 04:43:00,
2013-10-04 00:46:00,77.3,72.4,29.99,SE,145,0.0,0.0,85,0.00,,CLR,0.00,0.00,VWS V14.00,2013-10-04 04:46:00,
2013-10-04 00:47:00,77.3,72.4,29.99,SE,145,0.0,0.0,85,0.00,,CLR,0.00,0.00,VWS V14.00,2013-10-04 04:47:00,
2013-10-04 00:54:00,77.1,72.2,29.98,SE,145,0.0,0.0,85,0.00,,CLR,0.00,0.00,VWS V14.00,2013-10-04 04:54:00,
2013-10-04 00:58:00,77.0,72.2,29.98,SE,145,0.0,0.0,85,0.00,,CLR,0.00,0.00,VWS V14.00,2013-10-04 04:58:00,
2013-10-04 01:03:00,76.9,72.1,29.98,SE,145,0.0,0.0,85,0.00,,CLR,0.00,0.00,VWS V14.00,2013-10-04 05:03:00,
2013-10-04 01:06:00,76.8,71.9,29.98,SE,145,0.0,0.0,85,0.00,,CLR,0.00,0.00,VWS V14.00,2013-10-04 05:06:00,
2013-10-04 01:10:00,76.8,72.3,29.98,SE,145,0.0,0.0,86,0.00,,CLR,0.00,0.00,VWS V14.00,2013-10-04 05:10:00,
2013-10-04 01:15:00,76.7,72.2,29.98,SE,145,0.0,0.0,86,0.00,,CLR,0.00,0.00,VWS V14.00,2013-10-04 05:15:00,
2013-10-04 01:19:00,76.6,72.1,29.98,SE,145,0.0,0.0,86,0.00,,CLR,0.00,0.00,VWS V14.00,2013-10-04 05:19:00,
2013-10-04 01:20:00,76.6,72.1,29.98,SE,145,0.0,0.0,86,0.00,,CLR,0.00,0.00,VWS V14.00,2013-10-04 05:20:00,
2013-10-04 01:21:00,76.6,72.1,29.98,SE,145,0.0,0.0,86,0.00,,CLR,0.00,0.00,VWS V14.00,2013-10-04 05:21:00,
2013-10-04 01:24:00,76.5,72.0,29.98,SE,145,0.0,0.0,86,0.00,,CLR,0.00,0.00,VWS V14.00,2013-10-04 05:24:00,
2013-10-04 01:26:00,76.5,72.0,29.98,SE,145,0.0,0.0,86,0.00,,CLR,0.00,0.00,VWS V14.00,2013-10-04 05:26:00,
2013-10-04 01:31:00,76.4,72.2,29.98,SE,145,0.0,0.0,87,0.00,,CLR,0.00,0.00,VWS V14.00,2013-10-04 05:31:00,
2013-10-04 01:36:00,76.4,72.2,29.98,SE,145,0.0,0.0,87,0.00,,CLR,0.00,0.00,VWS V14.00,2013-10-04 05:36:00,
2013-10-04 01:41:00,76.4,72.2,29.98,SE,145,0.0,0.0,87,0.00,,CLR,0.00,0.00,VWS V14.00,2013-10-04 05:41:00,
2013-10-04 01:46:00,76.2,72.1,29.98,SE,145,0.0,0.0,87,0.00,,CLR,0.00,0.00,VWS V14.00,2013-10-04 05:46:00,
2013-10-04 01:51:00,76.2,72.1,29.98,SE,145,0.0,0.0,87,0.00,,CLR,0.00,0.00,VWS V14.00,2013-10-04 05:51:00,
2013-10-04 01:56:00,76.1,71.9,29.97,SE,145,0.0,0.0,87,0.00,,CLR,0.00,0.00,VWS V14.00,2013-10-04 05:56:00,
2013-10-04 02:01:00,76.1,71.9,29.97,SE,145,0.0,0.0,87,0.00,,CLR,0.00,0.00,VWS V14.00,2013-10-04 06:01:00,
2013-10-04 02:06:00,76.0,71.9,29.97,SE,145,0.0,0.0,87,0.00,,CLR,0.00,0.00,VWS V14.00,2013-10-04 06:06:00,
2013-10-04 02:11:00,76.0,71.9,29.97,SE,145,0.0,0.0,87,0.00,,CLR,0.00,0.00,VWS V14.00,2013-10-04 06:11:00,
2013-10-04 02:17:00,76.0,71.9,29.96,SE,145,0.0,0.0,87,0.00,,CLR,0.00,0.00,VWS V14.00,2013-10-04 06:17:00,
2013-10-04 02:22:00,75.8,71.7,29.97,SE,145,0.0,0.0,87,0.00,,CLR,0.00,0.00,VWS V14.00,2013-10-04 06:22:00,
2013-10-04 02:27:00,75.6,71.5,29.97,SE,145,0.0,0.0,87,0.00,,CLR,0.00,0.00,VWS V14.00,2013-10-04 06:27:00,
2013-10-04 02:32:00,75.5,71.7,29.97,SE,145,0.0,0.0,88,0.00,,CLR,0.00,0.00,VWS V14.00,2013-10-04 06:32:00,
2013-10-04 02:37:00,75.6,71.8,29.96,SE,145,0.0,0.0,88,0.00,,CLR,0.00,0.00,VWS V14.00,2013-10-04 06:37:00,
2013-10-04 02:42:00,75.5,71.7,29.96,SE,145,0.0,0.0,88,0.00,,CLR,0.00,0.00,VWS V14.00,2013-10-04 06:42:00,
2013-10-04 02:47:00,75.4,71.6,29.96,SE,145,0.0,0.0,88,0.00,,CLR,0.00,0.00,VWS V14.00,2013-10-04 06:47:00,
2013-10-04 02:52:00,75.3,71.5,29.96,SE,145,0.0,0.0,88,0.00,,CLR,0.00,0.00,VWS V14.00,2013-10-04 06:52:00,
2013-10-04 02:57:00,75.3,71.5,29.96,SE,145,0.0,0.0,88,0.00,,CLR,0.00,0.00,VWS V14.00,2013-10-04 06:57:00,
2013-10-04 03:02:00,75.3,71.5,29.96,SE,145,0.0,0.0,88,0.00,,CLR,0.00,0.00,VWS V14.00,2013-10-04 07:02:00,
2013-10-04 03:07:00,75.2,71.4,29.96,SE,145,0.0,0.0,88,0.00,,CLR,0.00,0.00,VWS V14.00,2013-10-04 07:07:00,
2013-10-04 03:12:00,75.2,71.4,29.96,SE,145,0.0,0.0,88,0.00,,CLR,0.00,0.00,VWS V14.00,2013-10-04 07:12:00,
2013-10-04 03:17:00,75.3,71.5,29.96,SE,145,0.0,0.0,88,0.00,,CLR,0.00,0.00,VWS V14.00,2013-10-04 07:17:00,
2013-10-04 03:22:00,75.4,71.6,29.96,SE,145,0.0,0.0,88,0.00,,CLR,0.00,0.00,VWS V14.00,2013-10-04 07:22:00,
2013-10-04 03:27:00,75.4,71.6,29.96,SE,145,0.0,0.0,88,0.00,,CLR,0.00,0.00,VWS V14.00,2013-10-04 07:27:00,
2013-10-04 03:32:00,75.4,71.6,29.96,SE,145,0.0,0.0,88,0.00,,CLR,0.00,0.00,VWS V14.00,2013-10-04 07:32:00,
2013-10-04 03:37:00,75.3,71.5,29.96,SE,145,0.0,0.0,88,0.00,,CLR,0.00,0.00,VWS V14.00,2013-10-04 07:37:00,
2013-10-04 03:42:00,75.3,71.5,29.96,SE,145,0.0,0.0,88,0.00,,CLR,0.00,0.00,VWS V14.00,2013-10-04 07:42:00,
2013-10-04 03:47:00,75.2,71.4,29.96,SE,145,0.0,0.0,88,0.00,,CLR,0.00,0.00,VWS V14.00,2013-10-04 07:47:00,
2013-10-04 03:52:00,75.2,71.4,29.96,SE,145,0.0,0.0,88,0.00,,CLR,0.00,0.00,VWS V14.00,2013-10-04 07:52:00,
2013-10-04 03:57:00,75.1,71.3,29.96,SE,145,0.0,0.0,88,0.00,,CLR,0.00,0.00,VWS V14.00,2013-10-04 07:57:00,
2013-10-04 04:02:00,75.1,71.3,29.96,SE,145,0.0,0.0,88,0.00,,CLR,0.00,0.00,VWS V14.00,2013-10-04 08:02:00,
2013-10-04 04:07:00,75.1,71.3,29.96,SE,145,0.0,0.0,88,0.00,,CLR,0.00,0.00,VWS V14.00,2013-10-04 08:07:00,
2013-10-04 04:12:00,75.1,71.6,29.96,SE,145,0.0,0.0,89,0.00,,CLR,0.00,0.00,VWS V14.00,2013-10-04 08:12:00,
2013-10-04 04:17:00,75.1,71.6,29.95,SE,145,0.0,0.0,89,0.00,,CLR,0.00,0.00,VWS V14.00,2013-10-04 08:17:00,
2013-10-04 04:22:00,75.1,71.6,29.95,SE,145,0.0,0.0,89,0.00,,CLR,0.00,0.00,VWS V14.00,2013-10-04 08:22:00,
2013-10-04 04:27:00,75.2,71.7,29.95,SE,145,0.0,0.0,89,0.00,,CLR,0.00,0.00,VWS V14.00,2013-10-04 08:27:00,
2013-10-04 04:32:00,75.1,71.6,29.95,SE,145,0.0,0.0,89,0.00,,CLR,0.00,0.00,VWS V14.00,2013-10-04 08:32:00,
2013-10-04 04:37:00,75.1,71.6,29.95,SE,145,0.0,0.0,89,0.00,,CLR,0.00,0.00,VWS V14.00,2013-10-04 08:37:00,
2013-10-04 04:42:00,75.1,71.6,29.95,SE,145,0.0,0.0,89,0.00,,CLR,0.00,0.00,VWS V14.00,2013-10-04 08:42:00,
2013-10-04 04:47:00,74.9,71.4,29.95,SE,145,0.0,0.0,89,0.00,,CLR,0.00,0.00,VWS V14.00,2013-10-04 08:47:00,
2013-10-04 04:52:00,75.1,71.6,29.95,SE,145,0.0,0.0,89,0.00,,CLR,0.00,0.00,VWS V14.00,2013-10-04 08:52:00,
2013-10-04 04:58:00,74.9,71.4,29.95,SE,145,0.0,0.0,89,0.00,,CLR,0.00,0.00,VWS V14.00,2013-10-04 08:58:00,
2013-10-04 05:03:00,74.8,71.3,29.95,SE,145,0.0,0.0,89,0.00,,CLR,0.00,0.00,VWS V14.00,2013-10-04 09:03:00,
2013-10-04 05:08:00,74.8,71.3,29.95,SE,145,0.0,0.0,89,0.00,,CLR,0.00,0.00,VWS V14.00,2013-10-04 09:08:00,
2013-10-04 05:13:00,74.9,71.4,29.95,SE,145,0.0,0.0,89,0.00,,CLR,0.00,0.00,VWS V14.00,2013-10-04 09:13:00,
2013-10-04 05:18:00,75.0,71.5,29.95,SE,145,0.0,0.0,89,0.00,,CLR,0.00,0.00,VWS V14.00,2013-10-04 09:18:00,
2013-10-04 05:23:00,74.9,71.4,29.95,SE,145,0.0,0.0,89,0.00,,CLR,0.00,0.00,VWS V14.00,2013-10-04 09:23:00,
2013-10-04 05:28:00,74.9,71.4,29.95,SE,145,0.0,0.0,89,0.00,,CLR,0.00,0.00,VWS V14.00,2013-10-04 09:28:00,
2013-10-04 05:33:00,74.9,71.4,29.95,SE,145,0.0,0.0,89,0.00,,CLR,0.00,0.00,VWS V14.00,2013-10-04 09:33:00,
2013-10-04 05:38:00,74.8,71.3,29.95,SE,145,0.0,0.0,89,0.00,,CLR,0.00,0.00,VWS V14.00,2013-10-04 09:38:00,
2013-10-04 05:43:00,74.9,71.4,29.95,SE,145,0.0,0.0,89,0.00,,CLR,0.00,0.00,VWS V14.00,2013-10-04 09:43:00,
2013-10-04 05:48:00,74.9,71.4,29.95,SE,145,0.0,0.0,89,0.00,,CLR,0.00,0.00,VWS V14.00,2013-10-04 09:48:00,
2013-10-04 05:53:00,74.9,71.4,29.95,SE,145,0.0,0.0,89,0.00,,CLR,0.00,0.00,VWS V14.00,2013-10-04 09:53:00,
2013-10-04 05:58:00,74.9,71.4,29.95,SE,145,0.0,0.0,89,0.00,,CLR,0.00,0.00,VWS V14.00,2013-10-04 09:58:00,
2013-10-04 06:03:00,74.9,71.4,29.95,SE,145,0.0,0.0,89,0.00,,CLR,0.00,0.00,VWS V14.00,2013-10-04 10:03:00,
2013-10-04 06:08:00,74.9,71.4,29.95,SE,145,0.0,0.0,89,0.00,,CLR,0.00,0.00,VWS V14.00,2013-10-04 10:08:00,
2013-10-04 06:13:00,74.9,71.4,29.95,SE,145,0.0,0.0,89,0.00,,CLR,0.00,0.00,VWS V14.00,2013-10-04 10:13:00,
2013-10-04 06:18:00,74.9,71.4,29.95,SE,145,0.0,0.0,89,0.00,,CLR,0.00,0.00,VWS V14.00,2013-10-04 10:18:00,
2013-10-04 06:23:00,74.8,71.3,29.95,SE,145,0.0,0.0,89,0.00,,CLR,0.00,0.00,VWS V14.00,2013-10-04 10:23:00,
2013-10-04 06:28:00,74.8,71.3,29.96,SE,145,0.0,0.0,89,0.00,,CLR,0.00,0.00,VWS V14.00,2013-10-04 10:28:00,
2013-10-04 06:33:00,74.8,71.3,29.96,SE,145,0.0,0.0,89,0.00,,CLR,0.00,0.00,VWS V14.00,2013-10-04 10:33:00,
2013-10-04 06:38:00,74.7,71.2,29.96,SE,145,0.0,0.0,89,0.00,,CLR,0.00,0.00,VWS V14.00,2013-10-04 10:38:00,
2013-10-04 06:43:00,74.6,71.2,29.96,SE,145,0.0,0.0,89,0.00,,CLR,0.00,0.00,VWS V14.00,2013-10-04 10:43:00,
2013-10-04 06:48:00,74.6,71.2,29.96,SE,145,0.0,0.0,89,0.00,,CLR,0.00,0.00,VWS V14.00,2013-10-04 10:48:00,
2013-10-04 06:54:00,74.6,71.2,29.96,SE,145,0.0,0.0,89,0.00,,CLR,0.00,0.00,VWS V14.00,2013-10-04 10:54:00,
2013-10-04 06:59:00,74.6,71.2,29.96,SE,145,0.0,0.0,89,0.00,,CLR,0.00,0.00,VWS V14.00,2013-10-04 10:59:00,
2013-10-04 07:04:00,74.5,71.1,29.96,SE,145,0.0,0.0,89,0.00,,CLR,0.00,0.00,VWS V14.00,2013-10-04 11:04:00,
2013-10-04 07:09:00,74.4,70.9,29.97,SE,145,0.0,0.0,89,0.00,,CLR,0.00,0.00,VWS V14.00,2013-10-04 11:09:00,
2013-10-04 07:14:00,74.3,70.8,29.97,SE,145,0.0,0.0,89,0.00,,CLR,0.00,0.00,VWS V14.00,2013-10-04 11:14:00,
2013-10-04 07:19:00,74.3,70.8,29.97,SE,145,0.0,0.0,89,0.00,,CLR,0.00,0.00,VWS V14.00,2013-10-04 11:19:00,
2013-10-04 07:24:00,74.4,70.9,29.97,SE,145,0.0,0.0,89,0.00,,CLR,0.00,5.00,VWS V14.00,2013-10-04 11:24:00,
2013-10-04 07:29:00,74.4,70.9,29.97,SE,145,0.0,0.0,89,0.00,,CLR,0.00,9.00,VWS V14.00,2013-10-04 11:29:00,
2013-10-04 07:34:00,74.4,70.9,29.97,SE,145,0.0,0.0,89,0.00,,CLR,0.00,9.00,VWS V14.00,2013-10-04 11:34:00,
2013-10-04 07:39:00,74.4,70.9,29.97,SE,145,0.0,0.0,89,0.00,,CLR,0.00,12.00,VWS V14.00,2013-10-04 11:39:00,
2013-10-04 07:44:00,74.5,71.1,29.98,SE,145,0.0,0.0,89,0.00,,CLR,0.00,72.00,VWS V14.00,2013-10-04 11:44:00,
2013-10-04 07:49:00,74.6,71.2,29.98,SE,145,0.0,0.0,89,0.00,,CLR,0.00,84.00,VWS V14.00,2013-10-04 11:49:00,
2013-10-04 07:54:00,74.9,71.4,29.98,SE,145,0.0,0.0,89,0.00,,CLR,0.00,93.00,VWS V14.00,2013-10-04 11:54:00,
2013-10-04 07:59:00,75.1,71.6,29.98,SE,145,0.0,0.0,89,0.00,,CLR,0.00,93.00,VWS V14.00,2013-10-04 11:59:00,
2013-10-04 08:04:00,75.3,71.8,29.98,SE,145,0.0,0.0,89,0.00,,CLR,0.00,93.00,VWS V14.00,2013-10-04 12:04:00,
2013-10-04 08:09:00,75.6,72.1,29.98,SE,145,0.0,0.0,89,0.00,,CLR,0.00,100.00,VWS V14.00,2013-10-04 12:09:00,
2013-10-04 08:14:00,75.9,72.4,29.98,SE,145,0.0,0.0,89,0.00,,CLR,0.00,100.00,VWS V14.00,2013-10-04 12:14:00,
2013-10-04 08:19:00,76.3,72.8,29.98,SE,145,0.0,0.0,89,0.00,,CLR,0.00,105.00,VWS V14.00,2013-10-04 12:19:00,
2013-10-04 08:24:00,76.7,73.2,29.99,SE,145,0.0,0.0,89,0.00,,CLR,0.00,111.00,VWS V14.00,2013-10-04 12:24:00,
2013-10-04 08:29:00,77.2,73.4,29.99,SE,145,0.0,3.0,88,0.00,,CLR,0.00,114.00,VWS V14.00,2013-10-04 12:29:00,
2013-10-04 08:34:00,77.9,73.7,29.99,SE,145,0.0,0.0,87,0.00,,FEW030,0.00,121.00,VWS V14.00,2013-10-04 12:34:00,
2013-10-04 08:39:00,78.8,73.9,29.99,SE,145,3.0,3.0,85,0.00,,FEW030,0.00,127.00,VWS V14.00,2013-10-04 12:39:00,
2013-10-04 08:44:00,79.6,74.3,29.99,SE,145,0.0,0.0,84,0.00,,FEW030,0.00,130.00,VWS V14.00,2013-10-04 12:44:00,
2013-10-04 08:49:00,80.3,74.3,30.00,SE,145,4.0,4.0,82,0.00,,FEW030,0.00,135.00,VWS V14.00,2013-10-04 12:49:00,
2013-10-04 08:54:00,80.8,74.1,30.00,SE,145,0.0,2.0,80,0.00,,FEW030,0.00,139.00,VWS V14.00,2013-10-04 12:54:00,
2013-10-04 08:59:00,81.3,74.5,30.00,SE,145,4.0,4.0,80,0.00,,FEW030,0.00,142.00,VWS V14.00,2013-10-04 12:59:00,
2013-10-04 09:04:00,81.9,74.0,30.00,SE,145,3.0,5.0,77,0.00,,FEW030,0.00,139.00,VWS V14.00,2013-10-04 13:04:00,
2013-10-04 09:09:00,81.9,73.6,30.00,SE,138,6.0,8.0,76,0.00,,FEW030,0.00,146.00,VWS V14.00,2013-10-04 13:09:00,
2013-10-04 09:14:00,81.8,73.1,30.00,SE,138,3.0,6.0,75,0.00,,FEW030,0.00,70.00,VWS V14.00,2013-10-04 13:14:00,
2013-10-04 09:19:00,81.9,73.2,30.00,SE,130,3.0,6.0,75,0.00,,FEW030,0.00,109.00,VWS V14.00,2013-10-04 13:19:00,
2013-10-04 09:25:00,81.9,73.6,30.00,SE,130,4.0,7.0,76,0.00,,FEW030,0.00,169.00,VWS V14.00,2013-10-04 13:25:00,
2013-10-04 09:30:00,82.3,73.6,30.00,SE,137,6.0,10.0,75,0.00,,FEW030,0.00,165.00,VWS V14.00,2013-10-04 13:30:00,
2013-10-04 09:35:00,82.7,73.6,30.00,SE,139,7.0,7.0,74,0.00,,FEW035,0.00,146.00,VWS V14.00,2013-10-04 13:35:00,
2013-10-04 09:40:00,82.9,73.4,30.00,SE,144,3.0,6.0,73,0.00,,FEW035,0.00,158.00,VWS V14.00,2013-10-04 13:40:00,
2013-10-04 09:45:00,83.1,73.6,30.00,SE,130,7.0,7.0,73,0.00,,FEW035,0.00,146.00,VWS V14.00,2013-10-04 13:45:00,
2013-10-04 09:50:00,82.8,72.9,30.00,SE,127,5.0,7.0,72,0.00,,FEW035,0.00,167.00,VWS V14.00,2013-10-04 13:50:00,
2013-10-04 09:55:00,82.7,72.8,30.00,ESE,112,6.0,10.0,72,0.00,,FEW035,0.00,44.00,VWS V14.00,2013-10-04 13:55:00,
2013-10-04 10:00:00,82.4,72.9,30.00,SE,126,5.0,7.0,73,0.00,,FEW035,0.00,162.00,VWS V14.00,2013-10-04 14:00:00,
2013-10-04 10:05:00,82.5,73.0,30.00,ESE,115,0.0,10.0,73,0.00,,FEW035,0.00,167.00,VWS V14.00,2013-10-04 14:05:00,
2013-10-04 10:10:00,82.9,73.4,30.00,ESE,123,9.0,9.0,73,0.00,,FEW035,0.00,165.00,VWS V14.00,2013-10-04 14:10:00,
2013-10-04 10:15:00,83.2,72.8,30.00,SE,129,2.0,5.0,71,0.00,,FEW035,0.00,135.00,VWS V14.00,2013-10-04 14:15:00,
2013-10-04 10:20:00,83.6,72.8,30.00,SE,132,5.0,8.0,70,0.00,,FEW035,0.00,109.00,VWS V14.00,2013-10-04 14:20:00,
2013-10-04 10:25:00,83.6,72.8,30.00,ESE,112,5.0,9.0,70,0.00,,FEW035,0.00,171.00,VWS V14.00,2013-10-04 14:25:00,
2013-10-04 10:30:00,83.6,73.2,30.00,ESE,112,3.0,5.0,71,0.00,,FEW035,0.00,163.00,VWS V14.00,2013-10-04 14:30:00,
2013-10-04 10:35:00,84.0,72.7,30.00,SE,137,4.0,6.0,69,0.00,,FEW035,0.00,176.00,VWS V14.00,2013-10-04 14:35:00,
2013-10-04 10:40:00,84.1,72.4,30.00,SE,138,7.0,8.0,68,0.00,,FEW035,0.00,179.00,VWS V14.00,2013-10-04 14:40:00,
2013-10-04 10:45:00,84.3,72.2,30.01,SSE,147,5.0,11.0,67,0.00,,FEW035,0.00,171.00,VWS V14.00,2013-10-04 14:45:00,
2013-10-04 10:50:00,84.1,72.8,30.01,SE,146,11.0,11.0,69,0.00,,FEW035,0.00,172.00,VWS V14.00,2013-10-04 14:50:00,
2013-10-04 10:55:00,84.2,72.5,30.01,SSE,147,9.0,9.0,68,0.00,,FEW035,0.00,179.00,VWS V14.00,2013-10-04 14:55:00,
2013-10-04 11:00:00,84.2,72.5,30.01,SSE,148,4.0,7.0,68,0.00,,FEW035,0.00,76.00,VWS V14.00,2013-10-04 15:00:00,
2013-10-04 11:05:00,84.4,72.2,30.01,SSE,148,3.0,5.0,67,0.00,,FEW035,0.00,172.00,VWS V14.00,2013-10-04 15:05:00,
2013-10-04 11:11:00,84.7,73.0,30.01,SSE,148,3.0,3.0,68,0.00,,FEW035,0.00,178.00,VWS V14.00,2013-10-04 15:11:00,
2013-10-04 11:16:00,84.4,72.2,30.01,SE,144,2.0,6.0,67,0.00,,FEW035,0.00,156.00,VWS V14.00,2013-10-04 15:16:00,
2013-10-04 11:21:00,83.9,72.2,30.01,SE,144,3.0,4.0,68,0.00,,FEW035,0.00,67.00,VWS V14.00,2013-10-04 15:21:00,
2013-10-04 11:26:00,84.1,72.8,30.00,SE,144,5.0,6.0,69,0.00,,FEW035,0.00,163.00,VWS V14.00,2013-10-04 15:26:00,
2013-10-04 11:31:00,84.5,71.9,30.00,ESE,122,7.0,11.0,66,0.00,,FEW030,0.00,54.00,VWS V14.00,2013-10-04 15:31:00,
2013-10-04 11:36:00,84.1,72.0,30.00,ESE,111,6.0,9.0,67,0.00,,FEW030,0.00,153.00,VWS V14.00,2013-10-04 15:36:00,
2013-10-04 11:41:00,83.9,71.8,30.00,ESE,108,3.0,5.0,67,0.00,,FEW030,0.00,53.00,VWS V14.00,2013-10-04 15:41:00,
2013-10-04 11:47:00,83.6,72.4,30.00,SE,126,4.0,11.0,69,0.00,,FEW030,0.00,135.00,VWS V14.00,2013-10-04 15:47:00,
2013-10-04 11:52:00,83.8,72.1,30.00,ESE,119,9.0,9.0,68,0.00,,FEW030,0.00,156.00,VWS V14.00,2013-10-04 15:52:00,
2013-10-04 11:57:00,84.4,73.1,30.00,ESE,121,6.0,7.0,69,0.00,,FEW030,0.00,158.00,VWS V14.00,2013-10-04 15:57:00,
2013-10-04 12:02:00,84.4,71.4,30.00,ESE,123,9.0,9.0,65,0.00,,FEW030,0.00,155.00,VWS V14.00,2013-10-04 16:02:00,
2013-10-04 12:07:00,84.5,71.4,30.00,ESE,122,2.0,4.0,65,0.00,,FEW030,0.00,156.00,VWS V14.00,2013-10-04 16:07:00,
2013-10-04 12:12:00,84.6,72.4,30.00,ESE,121,4.0,8.0,67,0.00,,FEW030,0.00,163.00,VWS V14.00,2013-10-04 16:12:00,
2013-10-04 12:17:00,84.9,71.8,30.00,SE,125,0.0,1.0,65,0.00,,FEW030,0.00,162.00,VWS V14.00,2013-10-04 16:17:00,
2013-10-04 12:22:00,85.4,72.8,30.00,ESE,121,9.0,9.0,66,0.00,,FEW030,0.00,137.00,VWS V14.00,2013-10-04 16:22:00,
2013-10-04 12:27:00,85.0,72.4,30.00,ESE,121,4.0,6.0,66,0.00,,FEW030,0.00,162.00,VWS V14.00,2013-10-04 16:27:00,
2013-10-04 12:32:00,84.8,72.2,29.99,ESE,102,4.0,7.0,66,0.00,,FEW030,0.00,134.00,VWS V14.00,2013-10-04 16:32:00,
2013-10-04 12:37:00,84.4,71.4,29.99,ESE,102,5.0,5.0,65,0.00,,FEW030,0.00,56.00,VWS V14.00,2013-10-04 16:37:00,
2013-10-04 12:42:00,84.3,72.2,29.99,ESE,105,4.0,4.0,67,0.00,,FEW030,0.00,155.00,VWS V14.00,2013-10-04 16:42:00,
2013-10-04 12:47:00,84.3,70.8,29.99,ESE,103,0.0,3.0,64,0.00,,FEW030,0.00,156.00,VWS V14.00,2013-10-04 16:47:00,
2013-10-04 12:52:00,84.6,72.4,29.98,ESE,109,2.0,6.0,67,0.00,,FEW030,0.00,178.00,VWS V14.00,2013-10-04 16:52:00,
2013-10-04 12:57:00,85.0,71.9,29.98,ESE,111,10.0,11.0,65,0.00,,FEW030,0.00,179.00,VWS V14.00,2013-10-04 16:57:00,
2013-10-04 13:02:00,84.6,71.6,29.98,ESE,111,5.0,5.0,65,0.00,,FEW030,0.00,102.00,VWS V14.00,2013-10-04 17:02:00,
2013-10-04 13:07:00,84.7,71.2,29.98,ESE,117,5.0,9.0,64,0.00,,FEW030,0.00,190.00,VWS V14.00,2013-10-04 17:07:00,
2013-10-04 13:12:00,84.7,71.6,29.98,ESE,119,7.0,12.0,65,0.00,,FEW030,0.00,185.00,VWS V14.00,2013-10-04 17:12:00,
2013-10-04 13:17:00,84.6,71.6,29.97,ESE,105,6.0,9.0,65,0.00,,FEW030,0.00,193.00,VWS V14.00,2013-10-04 17:17:00,
2013-10-04 13:22:00,85.1,72.5,29.97,SE,128,4.0,12.0,66,0.00,,FEW030,0.00,162.00,VWS V14.00,2013-10-04 17:22:00,
2013-10-04 13:27:00,85.3,71.8,29.97,SE,129,7.0,7.0,64,0.00,,FEW030,0.00,188.00,VWS V14.00,2013-10-04 17:27:00,
2013-10-04 13:32:00,85.4,73.2,29.97,ESE,115,7.0,13.0,67,0.00,,FEW032,0.00,179.00,VWS V14.00,2013-10-04 17:32:00,
2013-10-04 13:37:00,85.1,72.0,29.97,SE,127,5.0,12.0,65,0.00,,FEW032,0.00,171.00,VWS V14.00,2013-10-04 17:37:00,
2013-10-04 14:03:00,85.4,72.8,29.96,ESE,111,7.0,14.0,66,0.00,,FEW032,0.00,179.00,VWS V14.00,2013-10-04 18:03:00,
2013-10-04 14:08:00,85.3,73.1,29.96,SE,134,11.0,11.0,67,0.00,,FEW032,0.00,137.00,VWS V14.00,2013-10-04 18:08:00,
2013-10-04 14:13:00,85.4,72.3,29.96,ESE,121,6.0,10.0,65,0.00,,FEW032,0.00,163.00,VWS V14.00,2013-10-04 18:13:00,
2013-10-04 14:18:00,85.0,71.9,29.96,ESE,119,5.0,14.0,65,0.00,,FEW032,0.00,163.00,VWS V14.00,2013-10-04 18:18:00,
2013-10-04 14:23:00,84.7,72.5,29.96,SE,131,5.0,9.0,67,0.00,,FEW032,0.00,156.00,VWS V14.00,2013-10-04 18:23:00,
2013-10-04 14:28:00,85.1,71.6,29.95,East,97,11.0,14.0,64,0.00,,FEW032,0.00,151.00,VWS V14.00,2013-10-04 18:28:00,
2013-10-04 14:33:00,84.8,71.3,29.95,East,86,5.0,9.0,64,0.00,,FEW035,0.00,148.00,VWS V14.00,2013-10-04 18:33:00,
2013-10-04 14:38:00,84.9,72.3,29.95,SE,127,4.0,11.0,66,0.00,,FEW035,0.00,69.00,VWS V14.00,2013-10-04 18:38:00,
2013-10-04 14:43:00,84.8,70.3,29.95,ESE,112,6.0,11.0,62,0.00,,FEW035,0.00,104.00,VWS V14.00,2013-10-04 18:43:00,
2013-10-04 14:48:00,84.8,71.3,29.95,ESE,119,6.0,9.0,64,0.00,,FEW035,0.00,139.00,VWS V14.00,2013-10-04 18:48:00,
2013-10-04 14:53:00,84.9,71.4,29.95,ESE,120,8.0,11.0,64,0.00,,FEW035,0.00,148.00,VWS V14.00,2013-10-04 18:53:00,
2013-10-04 14:58:00,84.4,70.4,29.95,East,97,6.0,9.0,63,0.00,,FEW035,0.00,139.00,VWS V14.00,2013-10-04 18:58:00,
2013-10-04 15:03:00,84.4,71.4,29.95,ESE,113,7.0,9.0,65,0.00,,FEW035,0.00,135.00,VWS V14.00,2013-10-04 19:03:00,
2013-10-04 15:08:00,84.7,70.7,29.95,SE,139,6.0,11.0,63,0.00,,FEW035,0.00,139.00,VWS V14.00,2013-10-04 19:08:00,
2013-10-04 15:13:00,85.0,71.5,29.95,ESE,109,3.0,8.0,64,0.00,,FEW035,0.00,137.00,VWS V14.00,2013-10-04 19:13:00,
2013-10-04 15:18:00,84.6,71.6,29.95,ESE,107,7.0,9.0,65,0.00,,FEW035,0.00,135.00,VWS V14.00,2013-10-04 19:18:00,
2013-10-04 15:23:00,84.5,71.0,29.95,ESE,107,5.0,11.0,64,0.00,,FEW035,0.00,135.00,VWS V14.00,2013-10-04 19:23:00,
2013-10-04 15:28:00,84.5,71.4,29.95,East,95,7.0,10.0,65,0.00,,FEW035,0.00,137.00,VWS V14.00,2013-10-04 19:28:00,
2013-10-04 15:33:00,84.6,72.0,29.95,ESE,117,4.0,6.0,66,0.00,,FEW035,0.00,144.00,VWS V14.00,2013-10-04 19:33:00,
2013-10-04 15:38:00,84.8,72.2,29.95,ESE,109,6.0,13.0,66,0.00,,FEW035,0.00,142.00,VWS V14.00,2013-10-04 19:38:00,
2013-10-04 15:43:00,84.6,72.0,29.94,SE,144,7.0,9.0,66,0.00,,FEW035,0.00,44.00,VWS V14.00,2013-10-04 19:43:00,
2013-10-04 15:48:00,84.1,72.0,29.94,ESE,107,10.0,11.0,67,0.00,,FEW035,0.00,141.00,VWS V14.00,2013-10-04 19:48:00,
2013-10-04 15:53:00,83.7,71.6,29.94,ESE,111,5.0,11.0,67,0.00,,FEW035,0.00,137.00,VWS V14.00,2013-10-04 19:53:00,
2013-10-04 15:58:00,83.9,72.2,29.94,SE,126,7.0,10.0,68,0.00,,FEW035,0.00,134.00,VWS V14.00,2013-10-04 19:58:00,
2013-10-04 16:03:00,84.6,72.4,29.94,ESE,106,10.0,12.0,67,0.00,,FEW035,0.00,109.00,VWS V14.00,2013-10-04 20:03:00,
2013-10-04 16:08:00,84.4,71.8,29.94,East,90,5.0,12.0,66,0.00,,FEW035,0.00,83.00,VWS V14.00,2013-10-04 20:08:00,
2013-10-04 16:13:00,84.1,72.4,29.94,East,88,6.0,7.0,68,0.00,,FEW035,0.00,109.00,VWS V14.00,2013-10-04 20:13:00,
2013-10-04 16:19:00,83.8,71.7,29.94,SE,139,11.0,12.0,67,0.00,,FEW035,0.00,116.00,VWS V14.00,2013-10-04 20:19:00,
2013-10-04 16:24:00,83.8,71.7,29.94,ESE,110,6.0,10.0,67,0.00,,FEW035,0.00,111.00,VWS V14.00,2013-10-04 20:24:00,
2013-10-04 16:29:00,83.7,72.0,29.94,ESE,109,8.0,10.0,68,0.00,,FEW035,0.00,58.00,VWS V14.00,2013-10-04 20:29:00,
2013-10-04 16:34:00,83.4,71.3,29.94,ESE,113,10.0,10.0,67,0.00,,FEW035,0.00,49.00,VWS V14.00,2013-10-04 20:34:00,
2013-10-04 16:39:00,83.2,71.6,29.94,ESE,115,8.0,10.0,68,0.00,,FEW035,0.00,56.00,VWS V14.00,2013-10-04 20:39:00,
2013-10-04 16:44:00,83.1,71.4,29.94,ESE,106,7.0,11.0,68,0.00,,FEW035,0.00,84.00,VWS V14.00,2013-10-04 20:44:00,
2013-10-04 16:49:00,83.1,71.9,29.94,ESE,119,4.0,10.0,69,0.00,,FEW035,0.00,84.00,VWS V14.00,2013-10-04 20:49:00,
2013-10-04 16:54:00,83.2,71.1,29.94,SE,142,11.0,13.0,67,0.00,,FEW035,0.00,81.00,VWS V14.00,2013-10-04 20:54:00,
2013-10-04 16:59:00,83.2,71.1,29.93,ESE,116,6.0,12.0,67,0.00,,FEW035,0.00,79.00,VWS V14.00,2013-10-04 20:59:00,
2013-10-04 17:04:00,83.2,71.6,29.93,East,99,2.0,6.0,68,0.00,,FEW035,0.00,97.00,VWS V14.00,2013-10-04 21:04:00,
2013-10-04 17:09:00,83.3,71.6,29.94,ESE,123,5.0,9.0,68,0.00,,FEW035,0.00,65.00,VWS V14.00,2013-10-04 21:09:00,
2013-10-04 17:14:00,83.3,71.6,29.93,SE,136,6.0,11.0,68,0.00,,FEW035,0.00,54.00,VWS V14.00,2013-10-04 21:14:00,
2013-10-04 17:19:00,83.2,72.0,29.94,SE,134,7.0,10.0,69,0.00,,FEW035,0.00,58.00,VWS V14.00,2013-10-04 21:19:00,
2013-10-04 17:24:00,83.0,71.8,29.94,ESE,115,9.0,10.0,69,0.00,,FEW035,0.00,84.00,VWS V14.00,2013-10-04 21:24:00,
2013-10-04 17:29:00,82.7,71.9,29.93,East,99,6.0,7.0,70,0.00,,FEW035,0.00,86.00,VWS V14.00,2013-10-04 21:29:00,
2013-10-04 17:34:00,82.6,71.8,29.94,ESE,123,6.0,10.0,70,0.00,,SCT100,0.00,74.00,VWS V14.00,2013-10-04 21:34:00,
2013-10-04 17:39:00,82.8,72.4,29.94,East,96,6.0,9.0,71,0.00,,SCT100,0.00,72.00,VWS V14.00,2013-10-04 21:39:00,
2013-10-04 17:44:00,82.8,72.0,29.94,SE,127,5.0,9.0,70,0.00,,SCT100,0.00,65.00,VWS V14.00,2013-10-04 21:44:00,
2013-10-04 17:49:00,82.6,71.8,29.94,ESE,112,6.0,10.0,70,0.00,,SCT100,0.00,63.00,VWS V14.00,2013-10-04 21:49:00,
2013-10-04 17:54:00,82.4,71.6,29.94,ESE,107,8.0,9.0,70,0.00,,SCT100,0.00,76.00,VWS V14.00,2013-10-04 21:54:00,
2013-10-04 17:59:00,82.4,72.1,29.94,ESE,106,2.0,6.0,71,0.00,,SCT100,0.00,35.00,VWS V14.00,2013-10-04 21:59:00,
2013-10-04 18:04:00,82.3,72.0,29.94,ESE,117,5.0,10.0,71,0.00,,SCT100,0.00,35.00,VWS V14.00,2013-10-04 22:04:00,
2013-10-04 18:09:00,82.3,72.0,29.94,ESE,123,4.0,6.0,71,0.00,,SCT100,0.00,25.00,VWS V14.00,2013-10-04 22:09:00,
2013-10-04 18:14:00,82.1,71.8,29.94,ESE,120,2.0,6.0,71,0.00,,SCT100,0.00,19.00,VWS V14.00,2013-10-04 22:14:00,
2013-10-04 18:19:00,82.1,72.2,29.94,ESE,119,9.0,9.0,72,0.00,,SCT100,0.00,16.00,VWS V14.00,2013-10-04 22:19:00,
2013-10-04 18:24:00,81.9,72.0,29.94,ESE,118,4.0,8.0,72,0.00,,SCT100,0.00,14.00,VWS V14.00,2013-10-04 22:24:00,
2013-10-04 18:29:00,81.8,71.9,29.94,ESE,121,5.0,10.0,72,0.00,,SCT100,0.00,12.00,VWS V14.00,2013-10-04 22:29:00,
2013-10-04 18:34:00,81.7,71.8,29.94,ESE,121,5.0,9.0,72,0.00,,SCT100,0.00,40.00,VWS V14.00,2013-10-04 22:34:00,
2013-10-04 18:39:00,81.7,72.2,29.94,ESE,116,5.0,5.0,73,0.00,,SCT100,0.00,19.00,VWS V14.00,2013-10-04 22:39:00,
2013-10-04 18:44:00,81.7,72.2,29.94,ESE,117,5.0,7.0,73,0.00,,SCT100,0.00,5.00,VWS V14.00,2013-10-04 22:44:00,
2013-10-04 18:49:00,81.6,72.5,29.94,ESE,120,6.0,9.0,74,0.00,,SCT100,0.00,0.00,VWS V14.00,2013-10-04 22:49:00,
2013-10-04 18:54:00,81.4,71.9,29.94,ESE,110,3.0,9.0,73,0.00,,SCT100,0.00,0.00,VWS V14.00,2013-10-04 22:54:00,
2013-10-04 18:59:00,81.3,71.8,29.95,ESE,107,3.0,9.0,73,0.00,,SCT100,0.00,0.00,VWS V14.00,2013-10-04 22:59:00,
2013-10-04 19:04:00,81.2,71.3,29.95,ESE,108,4.0,6.0,72,0.00,,SCT100,0.00,0.00,VWS V14.00,2013-10-04 23:04:00,
2013-10-04 19:09:00,81.2,71.7,29.95,ESE,109,4.0,5.0,73,0.00,,SCT100,0.00,0.00,VWS V14.00,2013-10-04 23:09:00,
2013-10-04 19:14:00,81.1,71.6,29.95,ESE,108,5.0,6.0,73,0.00,,SCT100,0.00,0.00,VWS V14.00,2013-10-04 23:14:00,
2013-10-04 19:19:00,81.1,71.6,29.95,ESE,108,2.0,6.0,73,0.00,,SCT100,0.00,0.00,VWS V14.00,2013-10-04 23:19:00,
2013-10-04 19:24:00,81.0,71.5,29.95,ESE,113,5.0,7.0,73,0.00,,SCT100,0.00,0.00,VWS V14.00,2013-10-04 23:24:00,
2013-10-04 19:29:00,81.0,71.5,29.95,ESE,116,5.0,7.0,73,0.00,,SCT100,0.00,0.00,VWS V14.00,2013-10-04 23:29:00,
2013-10-04 19:34:00,81.0,71.9,29.95,ESE,111,9.0,11.0,74,0.00,,SCT100,0.00,0.00,VWS V14.00,2013-10-04 23:34:00,
2013-10-04 19:39:00,80.9,71.8,29.95,ESE,109,3.0,6.0,74,0.00,,SCT100,0.00,0.00,VWS V14.00,2013-10-04 23:39:00,
2013-10-04 19:44:00,80.9,72.2,29.95,ESE,108,3.0,5.0,75,0.00,,SCT100,0.00,0.00,VWS V14.00,2013-10-04 23:44:00,
2013-10-04 19:49:00,80.8,72.1,29.96,ESE,109,4.0,4.0,75,0.00,,SCT100,0.00,0.00,VWS V14.00,2013-10-04 23:49:00,
2013-10-04 19:54:00,80.7,72.0,29.96,ESE,110,5.0,6.0,75,0.00,,SCT100,0.00,0.00,VWS V14.00,2013-10-04 23:54:00,
2013-10-04 19:59:00,80.7,72.0,29.96,ESE,110,6.0,6.0,75,0.00,,SCT100,0.00,0.00,VWS V14.00,2013-10-04 23:59:00,
2013-10-04 20:05:00,80.7,72.0,29.96,ESE,107,6.0,6.0,75,0.00,,SCT100,0.00,0.00,VWS V14.00,2013-10-05 00:05:00,
2013-10-04 20:10:00,80.6,71.9,29.96,ESE,107,4.0,7.0,75,0.00,,SCT100,0.00,0.00,VWS V14.00,2013-10-05 00:10:00,
2013-10-04 20:15:00,80.6,71.6,29.96,ESE,105,5.0,6.0,74,0.00,,SCT100,0.00,0.00,VWS V14.00,2013-10-05 00:15:00,
2013-10-04 20:20:00,80.6,71.9,29.96,ESE,105,3.0,4.0,75,0.00,,SCT100,0.00,0.00,VWS V14.00,2013-10-05 00:20:00,
2013-10-04 20:25:00,80.5,71.8,29.96,ESE,105,4.0,5.0,75,0.00,,SCT100,0.00,0.00,VWS V14.00,2013-10-05 00:25:00,
2013-10-04 20:30:00,80.5,71.8,29.96,ESE,105,3.0,4.0,75,0.00,,SCT100,0.00,0.00,VWS V14.00,2013-10-05 00:30:00,
2013-10-04 20:35:00,80.4,72.2,29.97,ESE,105,2.0,3.0,76,0.00,,SCT100,0.00,0.00,VWS V14.00,2013-10-05 00:35:00,
2013-10-04 20:40:00,80.3,72.1,29.97,ESE,105,0.0,3.0,76,0.00,,SCT100,0.00,0.00,VWS V14.00,2013-10-05 00:40:00,
2013-10-04 20:45:00,80.2,71.9,29.97,ESE,105,2.0,2.0,76,0.00,,SCT100,0.00,0.00,VWS V14.00,2013-10-05 00:45:00,
2013-10-04 20:50:00,80.1,71.9,29.97,ESE,105,0.0,1.0,76,0.00,,SCT100,0.00,0.00,VWS V14.00,2013-10-05 00:50:00,
2013-10-04 20:55:00,80.0,71.8,29.97,ESE,105,2.0,4.0,76,0.00,,SCT050,0.00,0.00,VWS V14.00,2013-10-05 00:55:00,
2013-10-04 21:00:00,79.9,71.7,29.97,ESE,105,0.0,3.0,76,0.00,,SCT050,0.00,0.00,VWS V14.00,2013-10-05 01:00:00,
2013-10-04 21:05:00,79.9,71.7,29.98,ESE,105,3.0,3.0,76,0.00,,SCT050,0.00,0.00,VWS V14.00,2013-10-05 01:05:00,
2013-10-04 21:10:00,79.8,71.6,29.98,ESE,105,3.0,5.0,76,0.00,,SCT050,0.00,0.00,VWS V14.00,2013-10-05 01:10:00,
2013-10-04 21:15:00,79.8,71.6,29.98,ESE,105,0.0,0.0,76,0.00,,SCT050,0.00,0.00,VWS V14.00,2013-10-05 01:15:00,
2013-10-04 21:20:00,79.7,71.9,29.98,ESE,105,0.0,0.0,77,0.00,,SCT050,0.00,0.00,VWS V14.00,2013-10-05 01:20:00,
2013-10-04 21:25:00,79.6,71.4,29.98,ESE,105,0.0,0.0,76,0.00,,SCT050,0.00,0.00,VWS V14.00,2013-10-05 01:25:00,
2013-10-04 21:30:00,79.5,71.7,29.98,ESE,105,0.0,0.0,77,0.00,,SCT050,0.00,0.00,VWS V14.00,2013-10-05 01:30:00,
2013-10-04 21:35:00,79.5,71.7,29.99,ESE,105,0.0,0.0,77,0.00,,FEW030,0.00,0.00,VWS V14.00,2013-10-05 01:35:00,
2013-10-04 21:40:00,79.4,71.6,29.99,ESE,105,0.0,0.0,77,0.00,,FEW030,0.00,0.00,VWS V14.00,2013-10-05 01:40:00,
2013-10-04 21:45:00,79.3,71.5,29.99,ESE,105,0.0,0.0,77,0.00,,FEW030,0.00,0.00,VWS V14.00,2013-10-05 01:45:00,
2013-10-04 21:50:00,79.2,71.8,29.99,ESE,105,0.0,0.0,78,0.00,,FEW030,0.00,0.00,VWS V14.00,2013-10-05 01:50:00,
2013-10-04 21:55:00,79.1,71.7,29.99,ESE,105,0.0,0.0,78,0.00,,FEW030,0.00,0.00,VWS V14.00,2013-10-05 01:55:00,
2013-10-04 22:00:00,78.9,71.5,29.99,ESE,105,0.0,0.0,78,0.00,,FEW030,0.00,0.00,VWS V14.00,2013-10-05 02:00:00,
2013-10-04 22:05:00,78.8,71.4,29.99,ESE,105,0.0,0.0,78,0.00,,FEW030,0.00,0.00,VWS V14.00,2013-10-05 02:05:00,
2013-10-04 22:10:00,78.8,71.4,30.00,ESE,105,0.0,0.0,78,0.00,,FEW030,0.00,0.00,VWS V14.00,2013-10-05 02:10:00,
2013-10-04 22:15:00,78.7,71.6,29.99,ESE,105,0.0,0.0,79,0.00,,FEW030,0.00,0.00,VWS V14.00,2013-10-05 02:15:00,
2013-10-04 22:20:00,78.6,71.6,30.00,ESE,105,0.0,0.0,79,0.00,,FEW030,0.00,0.00,VWS V14.00,2013-10-05 02:20:00,
2013-10-04 22:26:00,78.5,71.4,30.00,ESE,105,0.0,0.0,79,0.00,,FEW030,0.00,0.00,VWS V14.00,2013-10-05 02:26:00,
2013-10-04 22:31:00,78.5,71.4,30.00,ESE,105,0.0,0.0,79,0.00,,FEW030,0.00,0.00,VWS V14.00,2013-10-05 02:31:00,
2013-10-04 22:36:00,78.5,71.4,30.00,ESE,105,0.0,0.0,79,0.00,,FEW030,0.00,0.00,VWS V14.00,2013-10-05 02:36:00,
2013-10-04 22:41:00,78.4,71.3,30.00,ESE,105,0.0,0.0,79,0.00,,FEW030,0.00,0.00,VWS V14.00,2013-10-05 02:41:00,
2013-10-04 22:46:00,78.4,71.7,30.01,ESE,105,0.0,0.0,80,0.00,,FEW030,0.00,0.00,VWS V14.00,2013-10-05 02:46:00,
2013-10-04 22:51:00,78.3,71.3,30.00,ESE,105,0.0,0.0,79,0.00,,FEW030,0.00,0.00,VWS V14.00,2013-10-05 02:51:00,
2013-10-04 22:56:00,78.3,71.3,30.00,ESE,105,0.0,0.0,79,0.00,,FEW030,0.00,0.00,VWS V14.00,2013-10-05 02:56:00,
2013-10-04 23:01:00,78.3,71.3,30.00,ESE,105,0.0,0.0,79,0.00,,FEW030,0.00,0.00,VWS V14.00,2013-10-05 03:01:00,
2013-10-04 23:06:00,78.3,71.3,30.00,ESE,105,0.0,0.0,79,0.00,,FEW030,0.00,0.00,VWS V14.00,2013-10-05 03:06:00,
2013-10-04 23:11:00,78.2,71.5,30.00,ESE,105,0.0,0.0,80,0.00,,FEW030,0.00,0.00,VWS V14.00,2013-10-05 03:11:00,
2013-10-04 23:16:00,78.2,71.2,30.00,ESE,105,0.0,0.0,79,0.00,,FEW030,0.00,0.00,VWS V14.00,2013-10-05 03:16:00,
2013-10-04 23:21:00,78.1,71.4,30.00,ESE,105,0.0,0.0,80,0.00,,FEW030,0.00,0.00,VWS V14.00,2013-10-05 03:21:00,
2013-10-04 23:26:00,78.0,71.3,30.00,ESE,105,0.0,0.0,80,0.00,,FEW030,0.00,0.00,VWS V14.00,2013-10-05 03:26:00,
2013-10-04 23:31:00,77.8,71.1,29.99,ESE,105,0.0,0.0,80,0.00,,FEW030,0.00,0.00,VWS V14.00,2013-10-05 03:31:00,
2013-10-04 23:36:00,77.7,71.4,29.99,ESE,105,0.0,0.0,81,0.00,,FEW030,0.00,0.00,VWS V14.00,2013-10-05 03:36:00,
2013-10-04 23:41:00,77.6,71.3,29.99,ESE,105,0.0,0.0,81,0.00,,FEW030,0.00,0.00,VWS V14.00,2013-10-05 03:41:00,
2013-10-04 23:46:00,77.6,71.3,29.99,ESE,105,0.0,0.0,81,0.00,,FEW030,0.00,0.00,VWS V14.00,2013-10-05 03:46:00,
2013-10-04 23:51:00,77.5,71.2,29.99,ESE,105,0.0,0.0,81,0.00,,FEW030,0.00,0.00,VWS V14.00,2013-10-05 03:51:00,
2013-10-04 23:56:00,77.4,71.1,29.99,ESE,105,0.0,0.0,81,0.00,,FEW030,0.00,0.00,VWS V14.00,2013-10-05 03:56:00,